This demonstration page uses our WeatherBlox Daily Observations layout. Learn more.

Left ArrowRight Arrow

Hourly Observations for September 14, 2019

Temp ( °F °C ) Dew Point ( °F °C ) Humidity (%) Winds ( mph kmh ) Pressure ( in mb ) Visibility ( mi km ) Precip ( " mm )
12:59 am 00:59 Cloudy 72 22.2 66 18.9 82 82 E 8 13 30.30 1026 10 16 0.00 0.00
1:59 am 01:59 Mostly Cloudy 71 21.7 66 18.9 84 84 E 9 15 30.29 1026 10 16 0.00 0.00
2:59 am 02:59 Mostly Cloudy 72 22.2 67 19.4 84 84 E 8 13 30.27 1025 9 14 0.00 0.00
3:59 am 03:59 Mostly Cloudy 72 22.2 67 19.4 84 84 E 7 11 30.27 1025 9 14 0.00 0.00
4:24 am 04:24 Mostly Cloudy 72 22.2 68 20 87 87 ENE 7 11 30.28 1025 9 14 0.00 0.00
4:59 am 04:59 Mostly Cloudy 72 22.2 68 20 87 87 ENE 8 13 30.27 1025 9 14 0.00 0.00
5:59 am 05:59 Mostly Cloudy 72 22.2 68 20 87 87 E 9 15 30.27 1025 9 14 0.00 0.00
6:59 am 06:59 Partly Cloudy 72 22.2 68 20 87 87 E 7 11 30.28 1025 8 13 0.00 0.00
7:59 am 07:59 Mostly Sunny 74 23.3 69 20.6 85 85 E 8 13 30.29 1026 8 13 0.00 0.00
8:59 am 08:59 Mostly Sunny 76 24.4 70 21.1 82 82 ENE 8 13 30.30 1026 8 13 0.00 0.00
9:59 am 09:59 Mostly Sunny 77 25 71 21.7 82 82 E 9 15 30.30 1026 8 13 0.00 0.00
10:59 am 10:59 Partly Cloudy 78 25.6 71 21.7 79 79 NE 9 15 30.30 1026 9 14 0.00 0.00
11:59 am 11:59 Partly Cloudy 79 26.1 71 21.7 77 77 ENE 9 15 30.29 1026 9 14 0.00 0.00
12:59 pm 12:59 Partly Cloudy 80 26.7 72 22.2 76 76 NE 10 17 30.27 1025 9 14 0.00 0.00
1:59 pm 13:59 Partly Cloudy 81 27.2 72 22.2 74 74 NE 10 17 30.25 1024 10 16 0.00 0.00
2:59 pm 14:59 Partly Cloudy 80 26.7 72 22.2 76 76 ENE 10 17 30.23 1024 9 14 0.00 0.00
3:59 pm 15:59 Partly Cloudy 81 27.2 73 22.8 77 77 ENE 10 17 30.21 1023 9 14 0.00 0.00
4:59 pm 16:59 Mostly Cloudy 81 27.2 70 21.1 69 69 ESE 7 11 30.20 1023 10 16 0.00 0.00
5:59 pm 17:59 Partly Cloudy 80 26.7 69 20.6 69 69 SE 8 13 30.20 1023 10 16 0.00 0.00
6:59 pm 18:59 Partly Cloudy 78 25.6 69 20.6 74 74 SE 6 9 30.20 1023 10 16 0.00 0.00
7:59 pm 19:59 Partly Cloudy 76 24.4 70 21.1 82 82 SE 6 9 30.20 1023 10 16 0.00 0.00
8:59 pm 20:59 Mostly Clear 75 23.9 71 21.7 88 88 SSE 6 9 30.19 1023 10 16 0.00 0.00
9:59 pm 21:59 Partly Cloudy 74 23.3 72 22.2 94 94 SE 5 7 30.20 1023 9 14 0.00 0.00
10:59 pm 22:59 Mostly Cloudy 74 23.3 72 22.2 94 94 SSE 3 6 30.20 1023 9 14 0.00 0.00
11:59 pm 23:59 Cloudy 73 22.8 72 22.2 96 96 Calm 30.19 1022 9 14 0.00 0.00

Powered by AerisWeather